"Pseudo-MPEC" for P10UIMn

Created 2019 Dec 4 2:07:26 UT using Find_Orb

Click here for an explanation of pseudo-MPECs

 
 Astrometry: 
     P10UIMn  C2019 11 26':8B%dD\P6NBIyAstrometry)EV\wgP5DX50MxuBYi4w19a0vkF$F51
     P10UIMn  C2019 11 264I#qo3-l^[xK.C#^f6Mg9n(redacted;IDsIHar3A9@hn$IlANUdF51
     P10UIMn  C2019 11 26Qm*clickAt_.gS6jQd9SK2Y^-hereM%uu)yA$MviYCM2/+?yvJc5F51
     P10UIMn  C2019 11 28$5!7M/d,^9for6][n1W7DUeDsQexplanation-XqaTAJDy9y7AbUF52
     P10UIMn  C2019 12 03.39792 04 04 24.41 +21 32 30.1    ~C3AM 21.5 GVNEOCPG96
     P10UIMn  C2019 12 03.40362 04 04 23.88 +21 33 16.8    ~C3AM 20.9 GVNEOCPG96
     P10UIMn  C2019 12 03.40934 04 04 23.38 +21 34 03.0    ~C3AM 21.3 GVNEOCPG96
     P10UIMn  C2019 12 03.41505 04 04 22.81 +21 34 49.5    ~C3AM 21.7 GVNEOCPG96

Station data:
(F51) Pan-STARRS 1, Haleakala  (N20.707235 W156.255910)  US/Hawaii.
   Observers N. Primak, A. Schultz, S. Watters, J. Thiel, T. Goggia. Measurer
   PS1 Science Consortium. 1.8-m Ritchey-Chrétien + CCD.
(F52) Pan-STARRS 2, Haleakala  (N20.707384 W156.255910)  US/Hawaii. 1.8-m
   Ritchey-Chrétien + CCD.
(G96) Mt. Lemmon Survey  (N32.442754 W110.788720)  US/Arizona.  Observers T.
   A. Pruyne, B. M. Africano, E. J. Christensen, G. A. Farneth, D. C. Fuls,
   A. R. Gibbs, A. D. Grauer, H. Gröller, J. A. Johnson, R. A. Kowalski, S.
   M. Larson, G. J. Leonard, D. Rankin, R. L. Seaman, F. C. Shelly. 1.5-m
   reflector + 10K CCD.

Orbital elements:  P10UIMn
   Perihelion 2019 Dec 15.246734 +/- 0.0341 TT =  5:55:17 (JD 2458832.746734)
Epoch 2019 Dec  3.0 TT = JDT 2458820.5   Earth MOID: 0.0788   Ma: 0.0099
M 351.70697844 +/- 0.06             (J2000 ecliptic)          AutoNEOCP
n   0.67716190 +/- 0.00342          Peri.   11.83792 +/- 0.036
a   1.28432333 +/- 0.00432          Node    69.79659 +/- 0.0053
e   0.1732062 +/- 0.00214           Incl.   10.29140 +/- 0.10
P   1.46/531.62d           H 26.3   G  0.15   U  8.9  
q 1.06187043 +/- 0.00083    Q 1.50677622 +/- 0.00784
From 8 observations 2019 Nov. 26-Dec. 3; mean residual 0".24
Residuals in arcseconds: 
191126 F51  .08-  .28+    191128 F52  .04+  .01+    191203 G96  .51+  .14-    
191126 F51  .01+  .16+    191203 G96  .48-  .01+    191203 G96  .12+  .12-    
191126 F51  .02+  .45-    191203 G96  .17-  .25+    

Ephemerides (geocentric):
Date (UTC) HH   RA              Dec         delta   r     elong  mag " sig PA
---- -- -- --  -------------   -----------  ------ ------ -----  --- ---- ---
2019 12 04 02  04 03 43.135   +23 07 55.63  .07978 1.0647 171.8 21.5 .927  75
2019 12 04 03  04 03 40.339   +23 13 42.24  .07977 1.0647 171.7 21.5 .939  75
2019 12 04 04  04 03 37.543   +23 19 28.86  .07977 1.0646 171.6 21.5 .952  76
2019 12 04 05  04 03 34.745   +23 25 15.51  .07977 1.0646 171.6 21.5 .965  77
2019 12 04 06  04 03 31.947   +23 31 02.17  .07976 1.0646 171.5 21.5 .978  77
2019 12 04 07  04 03 29.148   +23 36 48.84  .07976 1.0646 171.5 21.5 0.99  78
2019 12 04 08  04 03 26.349   +23 42 35.52  .07976 1.0646 171.4 21.5 1.00  78
2019 12 04 09  04 03 23.548   +23 48 22.21  .07976 1.0645 171.3 21.5 1.02  79
2019 12 04 10  04 03 20.747   +23 54 08.90  .07976 1.0645 171.3 21.5 1.03  80
2019 12 04 11  04 03 17.945   +23 59 55.59  .07976 1.0645 171.2 21.5 1.05  80
2019 12 04 12  04 03 15.142   +24 05 42.27  .07976 1.0645 171.1 21.5 1.06  81
2019 12 04 13  04 03 12.339   +24 11 28.95  .07976 1.0645 171.1 21.6 1.07  81
2019 12 04 14  04 03 09.535   +24 17 15.62  .07976 1.0644 171.0 21.6 1.09  82
2019 12 04 15  04 03 06.731   +24 23 02.28  .07976 1.0644 170.9 21.6 1.10  82
2019 12 04 16  04 03 03.926   +24 28 48.93  .07976 1.0644 170.9 21.6 1.12  83
2019 12 04 17  04 03 01.120   +24 34 35.55  .07976 1.0644 170.8 21.6 1.13  83
2019 12 04 18  04 02 58.314   +24 40 22.16  .07976 1.0644 170.7 21.6 1.15  84
2019 12 04 19  04 02 55.507   +24 46 08.74  .07976 1.0643 170.6 21.6 1.17  84
2019 12 04 20  04 02 52.700   +24 51 55.29  .07976 1.0643 170.6 21.6 1.18  85
2019 12 04 21  04 02 49.892   +24 57 41.81  .07977 1.0643 170.5 21.6 1.20  86
2019 12 04 22  04 02 47.084   +25 03 28.30  .07977 1.0643 170.4 21.6 1.22  86
2019 12 04 23  04 02 44.276   +25 09 14.76  .07977 1.0643 170.4 21.6 1.23  87
2019 12 05 00  04 02 41.466   +25 15 01.17  .07977 1.0642 170.3 21.6 1.25  87
2019 12 05 01  04 02 38.657   +25 20 47.54  .07978 1.0642 170.2 21.6 1.27  88
2019 12 05 02  04 02 35.847   +25 26 33.86  .07978 1.0642 170.1 21.6 1.28  88
2019 12 05 03  04 02 33.037   +25 32 20.14  .07979 1.0642 170.1 21.6 1.30  88
2019 12 05 04  04 02 30.226   +25 38 06.36  .07979 1.0642 170.0 21.6 1.32  89
2019 12 05 05  04 02 27.416   +25 43 52.54  .07979 1.0642 169.9 21.6 1.34  89
2019 12 05 06  04 02 24.604   +25 49 38.65  .07980 1.0641 169.8 21.6 1.36  90
2019 12 05 07  04 02 21.793   +25 55 24.70  .07980 1.0641 169.7 21.6 1.37  90
2019 12 05 08  04 02 18.981   +26 01 10.69  .07981 1.0641 169.7 21.6 1.39  91
2019 12 05 09  04 02 16.169   +26 06 56.61  .07982 1.0641 169.6 21.6 1.41  91
2019 12 05 10  04 02 13.357   +26 12 42.46  .07982 1.0641 169.5 21.6 1.43  92
2019 12 05 11  04 02 10.545   +26 18 28.24  .07983 1.0640 169.4 21.6 1.45  92
2019 12 05 12  04 02 07.733   +26 24 13.95  .07984 1.0640 169.4 21.6 1.47  93
2019 12 05 13  04 02 04.920   +26 29 59.57  .07984 1.0640 169.3 21.6 1.49  93
2019 12 05 14  04 02 02.107   +26 35 45.11  .07985 1.0640 169.2 21.6 1.51  93
2019 12 05 15  04 01 59.294   +26 41 30.57  .07986 1.0640 169.1 21.6 1.53  94
2019 12 05 16  04 01 56.482   +26 47 15.95  .07986 1.0639 169.0 21.6 1.55  94
2019 12 05 17  04 01 53.669   +26 53 01.23  .07987 1.0639 169.0 21.6 1.58  95
2019 12 05 18  04 01 50.856   +26 58 46.42  .07988 1.0639 168.9 21.6 1.60  95
2019 12 05 19  04 01 48.043   +27 04 31.51  .07989 1.0639 168.8 21.6 1.62  96
2019 12 05 20  04 01 45.230   +27 10 16.50  .07990 1.0639 168.7 21.6 1.64  96
2019 12 05 21  04 01 42.417   +27 16 01.39  .07991 1.0639 168.6 21.6 1.66  96
2019 12 05 22  04 01 39.604   +27 21 46.17  .07992 1.0638 168.6 21.7 1.68  97
2019 12 05 23  04 01 36.791   +27 27 30.85  .07993 1.0638 168.5 21.7 1.71  97
2019 12 06 00  04 01 33.978   +27 33 15.42  .07994 1.0638 168.4 21.7 1.73  98
2019 12 06 01  04 01 31.166   +27 38 59.87  .07995 1.0638 168.3 21.7 1.75  98